EW9082 Providence RI US current weather conditions

sailwx.info

Wind from 216

Air temperature -2.8° C
Dewpoint -4.6° C

Last reported at 2020-Jan-24 10:46 UTC.
Time now 2020-Jan-24 11:37 UTC

Location: N 41°45' W 071°12'.
View on Google Maps.

See reports from other nearby stations

  
Tides and Currents Weather Stations Pressure Air Temp Water Temp Dewpoint Dewpoint Depression Visibility Wind Speed Wind Dir Waves Ship Positions
date/time (UTC)wind fromknots sea level pressurealtimeterstation pressurevisibilityair tempwater tempwave heightnotes
2020-Jan-24 10:46 216 -2.8
2020-Jan-24 10:31 216 -2.8
2020-Jan-24 10:17 216 -2.2
2020-Jan-24 10:02 216 -2.2
2020-Jan-24 09:46 216 -2.2
2020-Jan-24 09:31 216 -2.2
2020-Jan-24 09:16 216 -2.2
2020-Jan-24 09:01 216 -2.2
2020-Jan-24 08:46 216 -2.2
2020-Jan-24 08:31 110 -2.2
2020-Jan-24 08:17 110 -2.2
2020-Jan-24 08:01 110 -2.2
2020-Jan-24 07:46 110 -2.2
2020-Jan-24 07:30 110 -2.2
2020-Jan-24 07:16 110 -1.7
2020-Jan-24 07:01 110 -1.7
2020-Jan-24 06:46 110 -1.7
2020-Jan-24 06:31 110 -1.7
2020-Jan-24 06:16 110 -1.7
2020-Jan-24 06:00 110 -1.1
2020-Jan-24 05:46 110 -1.1
2020-Jan-24 05:30 110 -0.6
2020-Jan-24 05:16 110 -0.6
2020-Jan-24 05:00 110 -1.1
2020-Jan-24 04:45 098 -1.1
2020-Jan-24 04:31 098 -0.6
2020-Jan-24 04:15 098 -0.0
2020-Jan-24 04:00 113 -0.6
2020-Jan-24 03:45 114 -0.6
2020-Jan-24 03:30 136 -0.6
2020-Jan-24 03:15 081 -0.0
2020-Jan-24 03:00 131 -0.6
2020-Jan-24 02:46 136 -0.6
2020-Jan-24 02:30 094 -0.0
2020-Jan-24 02:16 097 0.6
2020-Jan-24 02:00 097 -0.0
2020-Jan-24 01:45 148 0.6
2020-Jan-24 01:31 148 1.1
2020-Jan-24 01:16 153 1.1
2020-Jan-24 01:00 153 1.1
2020-Jan-24 00:45 181 1.1
2020-Jan-24 00:30 203 1.7
2020-Jan-24 00:16 193 2.2
2020-Jan-24 00:00 205 2.2
2020-Jan-23 23:46 157 2.2
2020-Jan-23 23:30 205 2.2
2020-Jan-23 23:15 148 2.2
2020-Jan-23 23:00 103 2.2
2020-Jan-23 22:45 122 0 gusting 1 2.8
2020-Jan-23 22:30 118 3.3
2020-Jan-23 22:15 120 3.3
2020-Jan-23 22:00 123 3.3
2020-Jan-23 21:45 214 3.9
2020-Jan-23 21:30 214 5.0
2020-Jan-23 21:16 132 5.0
2020-Jan-23 21:00 212 6.1
2020-Jan-23 20:45 139 6.1
2020-Jan-23 20:30 162 6.7
2020-Jan-23 20:15 174 0 gusting 3 7.2
2020-Jan-23 20:00 177 0 gusting 1 7.8
2020-Jan-23 19:45 232 7.8
2020-Jan-23 19:30 131 0 gusting 2 7.8
2020-Jan-23 19:15 181 0 gusting 4 7.8
2020-Jan-23 19:00 194 0 gusting 3 8.3
2020-Jan-23 18:46 155 7.8
2020-Jan-23 18:30 252 7.8
2020-Jan-23 18:15 110 2 gusting 6 7.2
2020-Jan-23 18:02 162 2 gusting 5 7.2
2020-Jan-23 17:48 141 1 gusting 6 6.7
2020-Jan-23 17:33 166 2 gusting 5 6.1
2020-Jan-23 17:17 200 0 gusting 6 5.6
2020-Jan-23 17:01 160 1 gusting 6 5.6
2020-Jan-23 16:46 105 0 gusting 6 5.0
2020-Jan-23 16:31 162 1 gusting 5 5.0
2020-Jan-23 16:15 255 2 gusting 6 4.4
2020-Jan-23 16:02 148 0 gusting 6 3.9
2020-Jan-23 15:46 175 3 gusting 6 3.9
2020-Jan-23 15:31 163 1 gusting 7 3.9
2020-Jan-23 15:18 145 1 gusting 4 3.9
2020-Jan-23 15:01 200 2 gusting 6 3.3
2020-Jan-23 14:45 158 0 gusting 3 2.8
2020-Jan-23 14:30 139 0 gusting 3 1.7
2020-Jan-23 14:15 143 0 gusting 4 0.6
2020-Jan-23 14:00 150 0 gusting 2 -1.1
2020-Jan-23 13:45 222 0 gusting 2 -2.2
2020-Jan-23 13:30 198 -3.9
2020-Jan-23 13:15 167 -5.6
2020-Jan-23 13:00 149 -7.2
2020-Jan-23 12:45 148 -8.3
2020-Jan-23 12:30 148 -9.4
2020-Jan-23 12:15 148 -10.0
2020-Jan-23 12:01 091 -10.0
2020-Jan-23 11:47 091 -9.4
2020-Jan-23 11:31 091 -9.4
2020-Jan-23 11:19 091 -8.9
2020-Jan-23 11:03 091 -7.8
2020-Jan-23 10:48 143 -8.3
2020-Jan-23 10:32 151 -8.9
2020-Jan-23 10:17 151 -8.9
2020-Jan-23 10:02 151 -8.9
2020-Jan-23 09:47 151 -8.9
2020-Jan-23 09:32 084 -8.9
2020-Jan-23 09:16 084 -8.3
2020-Jan-23 09:01 113 -8.9
2020-Jan-23 08:47 112 -8.9
2020-Jan-23 08:31 112 -8.9
2020-Jan-23 08:17 112 -8.3
2020-Jan-23 08:01 112 -8.3
2020-Jan-23 07:46 111 -8.3
2020-Jan-23 07:32 105 -8.3
2020-Jan-23 07:17 071 -8.3
2020-Jan-23 07:00 071 -8.3
2020-Jan-23 06:46 071 -7.8
2020-Jan-23 06:31 071 -7.8
2020-Jan-23 06:16 071 -7.2
2020-Jan-23 06:01 071 -7.2
2020-Jan-23 05:46 071 -7.2
2020-Jan-23 05:32 071 -6.7
2020-Jan-23 05:15 068 -6.7
2020-Jan-23 05:01 068 -6.7
2020-Jan-23 04:45 068 -6.7
2020-Jan-23 04:30 056 -6.1
2020-Jan-23 04:15 056 -5.6
2020-Jan-23 04:01 122 -6.1
2020-Jan-23 03:46 122 -5.6
2020-Jan-23 03:30 122 -5.0
2020-Jan-23 03:15 122 -4.4
2020-Jan-23 03:02 124 -5.0
2020-Jan-23 02:45 143 -4.4
2020-Jan-23 02:30 145 -4.4
2020-Jan-23 02:15 145 -4.4
2020-Jan-23 02:01 129 -5.0
2020-Jan-23 01:45 129 -5.0
2020-Jan-23 01:30 129 -4.4
2020-Jan-23 01:16 079 -4.4
2020-Jan-23 01:00 124 -4.4
2020-Jan-23 00:45 124 -4.4
2020-Jan-23 00:31 124 -3.9
2020-Jan-23 00:15 124 -3.9
2020-Jan-23 00:00 124 -3.3
2020-Jan-22 23:45 124 -2.8
2020-Jan-22 23:30 124 -2.2
2020-Jan-22 23:15 124 -2.2
2020-Jan-22 23:00 124 -1.7
2020-Jan-22 22:45 125 -1.1
2020-Jan-22 22:30 115 -1.1
2020-Jan-22 22:15 172 -1.1
2020-Jan-22 22:00 172 -0.0
2020-Jan-22 21:45 195 0.6
2020-Jan-22 21:30 195 1.7
2020-Jan-22 21:15 168 2.2
2020-Jan-22 21:01 153 2.8
2020-Jan-22 20:45 195 0 gusting 3 3.3
2020-Jan-22 20:30 146 0 gusting 4 3.3
2020-Jan-22 20:15 188 3.9
2020-Jan-22 20:00 129 4.4
2020-Jan-22 19:45 165 0 gusting 2 3.9
2020-Jan-22 19:30 189 3.9
2020-Jan-22 19:15 245 3.3
2020-Jan-22 19:00 243 3.3
2020-Jan-22 18:45 201 3.3
2020-Jan-22 18:19 118 0 gusting 4 2.8
2020-Jan-22 18:00 174 3.3
2020-Jan-22 17:47 304 2.8
2020-Jan-22 17:33 304 0 gusting 3 2.2
2020-Jan-22 17:17 156 2 gusting 3 2.2
2020-Jan-22 17:02 297 2.2
2020-Jan-22 16:47 235 2.2
2020-Jan-22 16:31 303 1.7
2020-Jan-22 16:17 138 1.1
2020-Jan-22 16:02 219 1.1
2020-Jan-22 15:46 238 0.6
2020-Jan-22 15:31 211 -0.0
2020-Jan-22 15:18 228 -0.6
2020-Jan-22 15:01 123 -2.2
2020-Jan-22 14:46 123 -2.2
2020-Jan-22 14:30 123 -4.4
2020-Jan-22 14:16 194 -6.7
2020-Jan-22 14:01 110 -8.9
2020-Jan-22 13:45 110 -10.0
2020-Jan-22 13:30 110 -11.1
2020-Jan-22 13:15 110 -12.2
2020-Jan-22 13:00 110 -12.8
2020-Jan-22 12:45 110 -13.3
2020-Jan-22 12:30 110 -13.9
2020-Jan-22 12:18 110 -13.9
2020-Jan-22 11:47 110 -13.9
2020-Jan-22 11:32 110 -13.9